Lapse_Rate
7.2 7.0 6.8 6.5 6.2 6.3 6.3 6.2 6.1 6.2 6.2 6.3 6.3 5.7 5.5 5.3 5.3 5.4 5.2 4.9 5.2 5.4 5.7 5.9 6.1 6.4 6.6 6.6 6.5 6.6 6.5 6.5 6.5 6.4 6.5 6.3 6.2 6.3 6.1 6.1 6.4 6.3 6.1
7.5 7.2 7.2 6.9 6.5 6.4 6.4 6.2 6.1 6.2 6.2 6.2 6.5 6.2 5.8 5.7 5.3 5.2 5.3 5.2 5.3 5.5 5.7 5.8 6.0 6.3 6.5 6.5 6.5 6.6 6.6 6.4 6.5 6.4 6.3 6.1 6.2 6.2 6.2 6.1 6.3 6.0 5.9
7.6 7.4 7.4 7.3 7.0 6.6 6.5 6.3 6.2 6.2 6.2 6.2 6.3 6.3 6.0 5.8 5.5 5.5 5.3 5.4 5.3 5.5 5.5 5.8 6.0 6.1 6.4 6.5 6.6 6.7 6.7 6.5 6.4 6.4 6.3 6.2 6.2 6.1 6.0 6.3 6.0 5.9 5.7
7.8 7.7 7.5 7.5 7.3 6.9 6.7 6.5 6.3 6.3 6.3 6.1 6.2 6.3 6.3 6.1 5.7 5.6 5.2 5.1 5.3 5.3 5.6 5.7 6.0 6.1 6.4 6.5 6.6 6.7 6.9 6.5 6.4 6.4 6.5 6.6 6.3 6.3 6.1 6.0 5.9 5.6 5.5
8.0 8.0 7.6 7.5 7.5 7.1 7.1 6.6 6.5 6.5 6.5 6.1 6.2 6.2 6.3 6.3 6.1 6.0 5.5 5.3 5.2 5.5 5.6 5.6 6.0 6.0 6.3 6.4 6.4 6.6 6.6 6.5 6.4 6.6 6.7 6.7 6.5 6.4 6.3 6.0 5.8 5.5 5.5
7.8 8.0 7.6 7.4 7.4 7.2 7.1 7.0 6.8 6.7 6.5 6.3 6.1 6.0 6.3 6.4 6.4 5.9 5.5 5.4 5.2 5.3 5.6 5.8 6.0 5.9 6.1 6.3 6.5 6.4 6.5 6.7 6.7 6.8 6.9 6.9 6.3 6.1 6.1 5.9 5.7 5.5 5.4
7.4 7.5 7.4 7.2 7.4 7.2 7.3 7.2 6.8 6.7 6.7 6.4 6.2 6.1 6.5 6.5 6.4 6.4 6.1 5.8 5.5 5.3 5.5 5.6 5.8 6.0 6.1 6.3 6.4 6.5 6.6 6.7 6.8 7.0 7.1 6.6 6.2 6.1 5.9 5.8 5.6 5.4 5.3
7.2 7.0 7.0 7.1 7.2 7.1 7.1 7.2 7.0 7.1 6.8 6.4 6.3 6.2 6.3 6.5 6.7 6.5 6.3 6.1 5.7 5.4 5.4 5.6 5.7 5.9 6.1 6.2 6.5 6.5 6.6 6.8 6.8 6.8 6.9 6.3 6.2 6.0 5.8 5.8 5.6 5.3 5.3
6.6 6.4 6.5 6.6 6.8 6.6 7.0 7.1 6.9 7.0 7.1 6.6 6.2 6.3 6.4 6.9 6.8 6.3 6.4 5.9 5.9 5.6 5.5 5.4 5.7 5.9 6.1 6.1 6.4 6.6 6.7 6.7 6.8 6.8 6.6 6.2 6.0 6.0 5.8 5.8 5.5 5.4 5.3
6.7 6.2 6.3 5.7 5.9 6.0 6.4 6.9 6.9 7.0 6.6 6.6 6.3 6.3 6.6 6.8 6.7 6.8 6.4 6.2 5.8 5.6 5.5 5.4 5.6 5.9 6.0 6.0 6.2 6.4 6.5 6.6 6.6 6.5 6.3 6.1 5.8 5.8 5.8 5.6 5.5 5.5 5.3
6.7 6.6 5.9 5.0 5.1 5.4 6.0 6.4 6.8 6.6 6.6 6.6 6.6 6.4 6.7 6.7 6.6 7.3 6.8 6.3 6.0 5.6 5.5 5.7 5.7 5.7 6.0 6.0 6.1 6.2 6.2 6.4 6.5 6.2 6.1 6.0 5.7 5.6 5.6 5.5 5.6 5.5 5.4
6.8 6.9 6.9 6.4 6.3 5.8 6.1 6.5 6.6 6.5 6.3 6.6 6.5 6.3 6.4 6.7 7.1 7.1 6.6 6.2 6.0 6.0 5.8 5.7 5.6 5.7 5.5 5.5 5.6 5.9 5.9 6.1 6.1 6.1 5.9 5.9 5.8 5.6 5.7 5.7 5.5 5.5 5.4
6.5 6.6 7.2 6.7 6.3 6.2 6.3 6.4 6.3 6.5 6.4 6.4 6.6 6.5 6.6 6.7 6.9 7.1 6.1 6.3 6.3 6.2 6.0 5.9 5.8 5.7 5.5 5.6 5.2 5.4 5.7 5.8 5.6 5.8 5.8 5.8 5.7 5.7 5.7 5.6 5.5 5.5 5.5
6.8 6.9 7.2 7.2 7.0 6.5 6.5 6.5 6.4 6.5 6.4 6.4 6.5 6.4 6.5 6.6 6.7 6.6 6.5 6.2 5.9 6.3 6.3 6.1 5.9 5.7 5.6 5.8 5.2 5.4 5.4 5.6 5.7 5.6 5.6 5.7 5.7 5.7 5.7 5.5 5.4 5.5 5.5
7.4 7.2 7.5 7.6 7.5 7.2 6.8 6.6 6.4 6.6 6.4 6.5 6.5 6.4 6.4 6.5 6.8 6.9 6.6 6.2 6.2 6.1 6.7 6.6 6.1 5.8 5.7 5.5 5.5 5.3 5.3 5.2 5.4 5.4 5.5 5.5 5.4 5.4 5.4 5.4 5.4 5.7 5.7
7.5 7.5 7.6 7.6 7.6 7.8 7.4 6.8 6.7 6.6 6.5 6.5 6.5 6.5 6.5 6.5 7.0 6.8 6.5 6.4 6.2 6.0 6.3 6.4 6.4 5.9 5.5 5.6 5.7 5.5 5.3 5.1 5.0 5.3 5.2 5.5 5.3 5.1 5.2 5.3 5.4 5.5 5.4
7.5 7.6 7.7 7.9 8.0 7.9 7.6 7.3 7.0 6.9 6.6 6.5 6.5 6.5 6.6 6.8 6.9 6.7 6.6 6.7 6.6 6.2 6.6 6.2 6.3 6.0 6.0 5.8 5.6 5.3 5.4 5.2 4.8 5.1 5.2 5.4 5.0 5.0 5.1 5.3 5.5 5.5 5.2
7.9 7.8 8.1 8.5 8.4 8.5 8.1 7.6 7.3 6.9 6.8 6.7 6.6 6.2 6.5 6.5 6.7 6.6 6.8 7.1 6.9 6.4 6.2 6.4 6.2 6.2 6.0 5.6 5.3 5.2 5.3 5.4 5.0 5.1 4.9 5.1 4.9 4.8 4.9 5.2 5.0 5.1 4.9
7.8 7.8 7.7 8.1 8.3 8.5 8.3 7.9 7.6 7.0 6.8 6.5 6.1 5.9 6.0 5.9 6.4 6.5 6.8 7.1 7.1 6.7 6.5 6.0 5.9 5.8 6.0 5.8 5.7 5.4 5.3 5.1 5.1 5.0 4.9 4.9 4.9 4.9 4.9 4.9 5.1 4.9 5.4
7.6 7.7 8.1 8.1 8.1 8.2 8.1 8.1 7.3 7.0 7.1 6.6 6.4 6.3 6.2 6.5 6.6 6.5 7.1 7.4 7.1 7.0 6.6 6.1 6.0 5.9 5.9 6.1 5.8 5.8 5.4 5.2 5.0 4.8 4.8 4.7 4.7 4.7 4.7 5.0 5.5 5.7 5.8
7.6 7.8 7.9 7.8 7.6 8.0 7.7 7.4 7.3 6.7 6.7 6.5 6.4 6.1 6.3 6.0 6.5 6.7 7.2 7.2 7.1 7.0 6.7 6.1 6.4 6.3 6.1 5.9 6.0 5.8 5.6 5.3 5.4 5.0 4.6 4.6 4.8 4.5 4.5 5.4 5.4 5.6 5.7
7.7 8.0 7.9 8.0 7.9 7.6 7.4 7.1 6.8 7.1 6.8 6.1 6.5 6.4 6.3 6.0 6.2 6.7 7.1 7.1 7.1 7.0 6.7 6.4 6.7 6.1 6.3 6.1 6.1 5.8 5.3 5.4 5.2 4.9 4.7 4.9 4.6 4.5 4.6 4.5 5.0 5.4 5.6
7.5 7.5 7.6 8.0 7.9 7.5 7.4 7.4 7.3 7.2 6.9 6.5 6.1 6.3 6.2 6.1 6.4 6.7 6.7 6.8 6.9 6.8 6.8 6.8 6.2 6.1 6.1 6.2 5.9 5.6 5.3 5.3 5.2 5.1 5.1 4.8 4.9 4.8 4.8 4.8 5.0 5.1 5.5
7.2 7.3 7.2 7.5 7.8 7.7 7.4 7.1 7.0 6.7 6.7 6.8 6.4 6.1 6.2 6.1 6.3 6.1 6.7 6.5 6.9 7.0 6.9 6.8 6.6 6.1 5.9 6.0 6.1 6.0 5.4 5.3 5.1 5.2 5.2 4.9 4.9 5.0 4.8 5.0 5.0 5.2 5.3
7.2 7.2 7.0 6.8 7.1 7.3 7.3 6.9 6.7 7.0 7.0 6.9 6.3 6.5 6.2 6.2 5.9 6.0 6.5 6.4 6.6 6.9 7.1 6.5 6.4 6.1 6.0 5.9 6.0 5.8 5.8 5.6 5.3 5.2 5.1 4.9 5.0 4.9 4.7 5.1 5.1 5.2 5.5
7.1 7.0 6.7 6.6 6.8 7.1 7.2 7.0 6.7 6.5 6.7 6.7 6.7 6.4 6.2 6.3 6.1 6.0 6.1 6.5 6.5 6.9 6.5 6.7 6.1 6.2 5.8 5.7 5.6 5.7 5.5 5.6 5.4 5.2 5.0 5.0 5.3 4.9 5.0 5.2 5.3 5.3 5.6
Wind_Speed
8 11 11 11 11 11 13 12 12 12 11 12 11 11 10 8 9 10 11 13 18 17 17 17 18 19 18 16 17 16 16 17 18 16 16 15 14 14 14 13 12 10 10
11 8 9 9 11 13 13 13 11 8 7 10 9 11 10 10 10 10 9 9 18 18 17 17 18 18 18 16 17 17 15 18 17 17 16 15 14 14 13 12 11 10 9
17 13 11 10 11 14 14 12 11 9 7 8 9 9 10 12 8 9 9 6 11 18 19 19 18 19 19 17 18 18 16 16 17 17 16 15 15 14 13 11 10 9 8
19 11 9 11 16 14 12 9 9 7 8 8 7 7 7 10 11 9 8 9 12 16 18 18 17 19 19 19 19 18 16 15 18 18 17 15 15 14 13 12 10 9 8
19 14 11 11 14 9 10 10 9 8 7 8 7 7 7 7 8 8 10 10 12 16 17 20 18 19 20 20 20 18 18 18 19 20 18 17 16 15 14 12 10 9 7
21 15 9 9 13 8 8 9 11 8 7 7 7 6 6 5 6 6 7 7 9 13 17 17 17 17 21 21 21 20 20 20 21 21 20 18 17 16 14 12 11 9 8
19 12 9 11 11 11 11 11 8 10 6 8 6 4 3 6 7 7 8 6 8 12 11 15 15 14 18 23 23 22 21 22 22 21 20 19 19 17 15 13 12 10 9
17 13 13 11 12 10 11 12 12 6 5 10 5 4 3 3 6 8 7 8 10 10 11 16 16 17 16 18 20 23 23 23 23 22 22 20 20 18 16 15 13 11 10
13 11 13 10 11 10 10 11 13 14 9 9 11 5 4 5 4 5 9 8 10 8 12 15 17 19 19 18 17 23 24 24 23 22 22 21 20 19 17 15 14 13 13
17 14 11 10 10 10 11 11 11 12 10 10 8 10 5 7 6 4 4 9 8 11 12 13 17 20 21 20 20 21 23 26 25 24 23 23 21 19 18 17 16 17 12
16 15 13 15 13 10 13 11 11 13 10 10 11 9 11 6 6 3 4 5 8 10 11 13 16 19 22 21 21 22 24 24 27 26 25 25 23 21 21 20 20 16 11
8 12 13 16 14 11 12 11 13 14 12 11 10 11 13 10 11 8 7 8 10 8 9 11 11 16 18 21 23 23 27 27 26 27 26 27 25 23 23 22 18 16 18
3 8 10 11 10 12 12 11 13 14 15 12 12 12 12 13 10 12 8 6 5 5 5 8 9 15 18 20 22 27 29 31 28 29 27 27 26 25 23 20 20 19 21
3 6 5 7 9 11 12 12 10 11 12 12 16 13 9 11 10 11 10 7 5 5 4 4 8 12 18 20 21 29 25 34 33 30 29 25 27 26 25 23 20 22 23
5 4 5 8 10 10 12 13 11 12 12 13 14 13 12 11 10 10 8 8 9 8 9 8 7 13 18 18 22 21 25 26 35 34 31 24 24 26 23 25 28 27 25
8 9 8 6 8 9 9 12 11 13 14 11 10 13 12 10 10 10 8 7 8 8 9 11 9 6 13 13 20 23 22 24 34 35 32 28 28 27 32 33 31 30 28
8 8 9 9 8 8 9 11 12 12 15 14 12 13 15 14 10 10 9 9 9 9 9 2 2 5 6 9 9 18 17 20 19 34 34 33 33 36 35 34 33 31 29
10 10 11 10 9 9 9 9 11 11 13 14 15 14 14 10 14 12 9 12 10 12 9 8 5 3 3 8 8 10 8 12 16 27 36 36 36 35 34 33 31 29 27
11 10 10 11 11 10 10 9 11 11 13 15 15 15 15 14 14 9 10 10 10 9 10 3 5 2 2 2 3 3 6 9 11 18 25 31 33 33 32 31 30 28 26
11 12 11 10 11 11 11 11 9 11 13 13 14 15 15 15 16 13 12 13 10 10 9 6 4 3 2 2 3 5 5 4 7 14 18 22 27 30 30 30 30 29 26
11 11 12 11 11 10 8 11 13 10 10 12 13 13 14 15 17 15 10 12 12 10 5 7 4 3 3 5 11 6 5 7 5 3 9 11 19 20 23 25 24 25 24
12 12 12 11 10 8 11 14 13 12 11 11 12 13 12 14 16 16 16 14 13 12 9 7 6 8 11 9 9 9 9 8 5 4 7 6 13 8 15 17 23 25 24
12 13 13 12 11 11 10 12 16 12 11 10 11 11 11 7 12 13 13 13 13 14 13 13 12 10 11 13 13 13 13 13 5 10 12 5 4 6 13 18 24 24 21
13 13 13 13 12 9 11 13 15 13 9 10 12 11 11 10 12 11 9 8 9 8 10 10 15 14 16 17 21 20 16 6 7 9 4 5 6 5 10 15 22 22 20
13 13 13 14 12 11 11 14 13 11 10 10 7 9 9 11 15 15 10 10 7 7 2 14 10 11 12 20 18 11 10 12 4 7 3 3 6 6 3 7 16 19 17
12 11 13 12 14 13 12 13 12 7 9 7 5 5 9 10 15 17 13 11 9 8 6 5 3 6 13 18 24 19 15 15 7 3 7 4 12 6 4 3 11 15 15
Wind_Direction
196 195 193 186 180 176 179 182 181 181 184 190 188 199 189 172 182 169 165 182 201 174 172 171 167 164 169 171 157 156 170 157 153 162 153 159 158 151 149 147 143 138 134
190 191 193 191 187 182 184 186 184 184 188 191 187 198 189 174 188 172 161 200 220 184 175 177 176 176 170 171 159 162 172 166 162 164 160 164 163 159 154 152 148 145 142
193 189 193 195 194 188 179 185 179 182 192 197 197 197 194 186 197 182 176 193 229 194 181 185 183 180 175 173 163 168 172 167 168 168 170 173 170 166 163 159 161 155 148
196 189 200 204 190 187 185 184 185 181 198 202 199 197 200 192 197 195 181 199 229 203 192 187 185 182 176 171 173 173 176 178 177 170 175 178 178 177 173 167 175 167 163
194 189 197 200 192 193 193 190 190 188 195 201 200 189 196 199 196 186 196 202 213 207 191 188 187 183 181 174 176 180 182 192 183 174 174 181 186 184 182 175 184 182 179
202 197 190 184 179 189 197 195 195 190 203 197 197 196 197 209 198 203 195 179 213 214 193 183 190 192 188 183 184 185 189 194 187 180 181 186 192 191 188 182 193 191 196
211 202 196 188 185 194 197 189 180 181 190 190 161 171 198 219 218 213 205 181 197 206 207 186 196 197 197 194 189 189 195 196 193 187 185 189 195 195 188 191 197 198 204
210 210 205 202 194 195 191 188 184 172 179 172 170 136 184 194 229 226 211 209 210 192 199 197 200 203 205 200 201 196 201 199 193 191 189 195 195 197 195 196 200 202 210
211 218 212 208 201 202 203 195 196 183 183 183 189 157 169 203 163 204 214 208 205 200 203 202 202 204 207 207 204 208 204 200 195 196 194 192 196 201 202 200 200 205 214
185 189 212 203 211 205 211 203 200 198 191 185 197 219 239 151 192 188 210 212 204 205 208 209 206 205 206 208 211 209 205 207 201 196 191 193 201 204 205 205 203 217 196
187 176 179 217 209 215 213 198 191 199 206 197 196 192 209 189 187 155 182 193 206 214 216 211 207 207 207 206 210 213 207 207 208 200 195 196 198 206 207 206 208 210 179
195 208 195 204 199 202 207 197 195 198 207 207 200 207 204 197 200 201 201 188 207 206 209 214 204 204 202 207 209 210 210 211 209 210 202 202 199 202 210 212 210 179 167
199 219 196 202 204 207 209 200 200 202 207 205 202 210 209 217 210 212 204 190 179 196 190 207 211 199 198 205 207 206 211 211 209 207 209 213 207 205 211 212 184 174 163
255 219 202 231 223 212 212 203 204 207 207 210 206 209 208 215 210 214 204 189 184 182 180 170 208 206 198 200 210 206 211 212 210 211 213 217 215 208 210 190 180 159 150
337 294 251 235 226 225 221 215 209 207 209 210 212 205 212 217 205 212 204 199 200 206 209 197 192 206 206 191 199 198 211 212 213 212 212 209 208 192 180 172 151 143 145
344 336 317 284 250 234 227 223 216 214 209 208 209 206 210 210 199 200 200 200 211 217 228 206 209 197 203 200 197 192 202 207 211 211 205 197 186 180 163 150 145 145 148
343 350 327 321 292 257 233 228 218 216 215 213 206 209 208 206 199 202 194 204 205 211 223 136 156 184 183 185 177 193 194 200 203 203 195 189 176 161 154 150 149 149 149
351 345 335 311 308 291 249 235 225 215 218 214 211 209 211 202 205 195 190 201 208 211 216 201 178 170 188 203 185 165 151 176 185 186 176 168 159 153 149 147 146 144 145
351 341 331 328 314 307 307 247 229 226 217 215 212 210 208 198 200 191 193 198 207 209 214 143 164 146 107 157 116 86 129 115 112 144 151 149 147 145 142 139 138 138 138
351 342 327 320 311 307 301 302 255 235 225 218 213 209 205 198 198 194 198 206 204 200 200 183 158 150 135 124 132 153 141 133 126 122 124 132 131 134 136 137 139 140 141
345 334 322 315 316 313 307 331 328 254 242 223 214 213 206 199 201 200 199 205 197 202 185 170 147 139 155 160 183 172 149 136 113 119 129 132 133 135 141 141 144 144 145
339 329 316 311 312 310 323 325 328 315 255 224 225 207 208 202 202 197 191 184 189 190 177 174 179 194 193 190 171 169 155 157 161 207 137 131 142 141 145 150 151 150 149
333 322 315 314 311 313 316 320 322 315 288 246 224 217 212 198 195 197 202 198 198 196 173 180 188 194 184 184 170 171 182 190 163 160 140 135 143 134 142 150 155 154 156
326 319 316 313 309 312 312 318 316 305 280 265 237 221 209 199 197 190 181 198 212 202 200 191 203 201 202 182 183 185 175 131 96 152 148 130 152 138 140 148 162 160 162
324 320 315 309 304 311 315 315 322 313 291 265 237 217 198 193 196 192 184 195 208 223 217 207 217 186 172 177 170 142 158 158 139 183 200 116 145 113 126 150 164 166 166
316 317 312 307 302 306 318 314 320 307 293 281 252 255 225 211 201 190 201 189 200 217 165 135 131 128 148 170 176 181 169 179 156 148 194 120 145 135 147 171 166 167 168